Date String (YYYY-MM-DD hh:mm:ss) UTC,Instrument flags,absolute air pressure of the measurement (hPa),sample flow rate (lpm),inlet stack bypass flow (lpm),air temperature of the measurement (°C),ambient temperature measured by the external sensor (°C),aerosol sample conditioner tube jacket temperature (°C),OPC LED temperature (°C),internal box temperature (°C),relative humidity of the measurement (%),span deviation,mass concentration of particles derived from Lorenz-Mie calculation of OPC scattering (μg/m³),mass concentration of particles derived from Lorenz-Mie calculation of OPC scattering (μg/m³),mass concentration of particles derived from Lorenz-Mie calculation of OPC scattering (μg/m³)
DateTimeUTC,F1_M11,P_M11,Q1_M11,Q2_M11,T1_M11,T2_M11,T3_M11,T4_M11,T5_M11,U1_M11,ZSPAN_M11,X2_M11,X0_M11,X1_M11
2023-06-13 01:00:00,SystemResetWarning,0829.6,4.99,000.00,029.9,028.3,000.0,038.5,031.5,25.3,0000.0,0002.42,0003.69,0001.91
2023-06-13 01:01:00,SystemResetWarning,0829.7,5.00,000.00,030.0,028.3,000.0,038.5,031.5,25.2,0000.0,0002.48,0003.86,0001.91
2023-06-13 01:02:00,SystemResetWarning,0829.7,5.01,000.00,030.0,028.4,000.0,038.5,031.5,25.2,0000.0,0002.52,0003.89,0001.91
2023-06-13 01:03:00,SystemResetWarning,0829.7,5.01,000.00,030.0,028.4,000.0,038.5,031.5,24.9,0000.0,0002.55,0003.95,0001.92
2023-06-13 01:04:00,SystemResetWarning,0829.7,5.00,000.00,030.0,028.4,000.0,038.5,031.5,24.7,0000.0,0002.55,0004.01,0001.91
2023-06-13 01:05:00,SystemResetWarning,0829.7,5.00,000.00,030.0,028.5,000.0,038.5,031.6,24.6,0000.0,0002.52,0003.93,0001.90
2023-06-13 01:06:00,SystemResetWarning,0829.7,5.00,000.00,030.0,028.5,000.0,038.5,031.6,24.2,0000.0,0002.54,0003.99,0001.91
2023-06-13 01:07:00,SystemResetWarning,0829.7,5.00,000.00,030.0,028.5,000.0,038.6,031.6,24.1,0000.0,0002.60,0004.19,0001.93
2023-06-13 01:08:00,SystemResetWarning,0829.7,5.00,000.00,030.0,028.5,000.0,038.6,031.7,24.2,0000.0,0002.57,0004.17,0001.92
2023-06-13 01:09:00,SystemResetWarning,0829.7,5.00,000.00,030.1,028.5,000.0,038.6,031.7,24.3,0000.0,0002.56,0004.18,0001.93
2023-06-13 01:10:00,SystemResetWarning,0829.7,5.00,000.00,030.1,028.5,000.0,038.6,031.7,24.8,0000.0,0002.57,0004.12,0001.95
2023-06-13 01:11:00,SystemResetWarning,0829.7,5.00,000.00,030.1,028.5,000.0,038.6,031.7,25.1,0000.0,0002.56,0004.09,0001.97
2023-06-13 01:12:00,SystemResetWarning,0829.7,5.01,000.00,030.1,028.5,000.0,038.6,031.7,25.6,0000.0,0002.52,0003.99,0001.97
2023-06-13 01:13:00,SystemResetWarning,0829.7,5.00,000.00,030.1,028.6,000.0,038.6,031.7,26.1,0000.0,0002.52,0004.05,0001.99
2023-06-13 01:14:00,SystemResetWarning,0829.7,5.00,000.00,030.1,028.6,000.0,038.6,031.7,26.2,0000.0,0002.54,0004.15,0001.99
2023-06-13 01:15:00,SystemResetWarning,0829.7,5.01,000.00,030.1,028.6,000.0,038.6,031.8,26.4,0000.0,0002.55,0004.18,0002.00
2023-06-13 01:16:00,SystemResetWarning,0829.8,4.98,000.00,030.1,028.6,000.0,038.7,031.7,26.5,0000.0,0002.59,0004.29,0002.03
2023-06-13 01:17:00,SystemResetWarning,0829.8,5.01,000.00,030.1,028.6,000.0,038.7,031.7,26.6,0000.0,0002.56,0004.23,0002.04
2023-06-13 01:18:00,SystemResetWarning,0829.9,5.01,000.00,030.1,028.6,000.0,038.7,031.8,27.0,0000.0,0002.55,0004.14,0002.05
2023-06-13 01:19:00,SystemResetWarning,0830.0,5.00,000.00,030.2,028.6,000.0,038.7,031.7,27.2,0000.0,0002.61,0004.31,0002.07
2023-06-13 01:20:00,SystemResetWarning,0830.0,5.00,000.00,030.2,028.6,000.0,038.7,031.7,27.1,0000.0,0002.69,0004.51,0002.10
2023-06-13 01:21:00,SystemResetWarning,0830.0,4.99,000.00,030.2,028.6,000.0,038.7,031.7,26.9,0000.0,0002.71,0004.60,0002.11
2023-06-13 01:22:00,SystemResetWarning,0830.0,4.99,000.00,030.2,028.6,000.0,038.7,031.8,26.9,0000.0,0002.79,0005.42,0002.11
2023-06-13 01:23:00,SystemResetWarning,0830.0,5.00,000.00,030.2,028.6,000.0,038.7,031.8,27.1,0000.0,0002.88,0005.69,0002.12
2023-06-13 01:24:00,SystemResetWarning,0830.0,5.00,000.00,030.2,028.6,000.0,038.7,031.8,27.1,0000.0,0002.90,0005.75,0002.13
2023-06-13 01:25:00,SystemResetWarning,0830.0,5.00,000.00,030.2,028.7,000.0,038.7,031.8,26.5,0000.0,0002.90,0005.72,0002.15
2023-06-13 01:26:00,SystemResetWarning,0830.0,5.00,000.00,030.2,028.7,000.0,038.8,031.8,26.4,0000.0,0002.95,0005.92,0002.17
2023-06-13 01:27:00,SystemResetWarning,0830.1,5.01,000.00,030.2,028.7,000.0,038.8,031.8,26.2,0000.0,0002.93,0005.85,0002.18
2023-06-13 01:28:00,SystemResetWarning,0830.1,5.00,000.00,030.2,028.7,000.0,038.8,031.8,26.3,0000.0,0002.98,0005.92,0002.18
2023-06-13 01:29:00,SystemResetWarning,0830.1,5.00,000.00,030.2,028.7,000.0,038.8,031.8,26.4,0000.0,0003.00,0006.08,0002.19
2023-06-13 01:30:00,SystemResetWarning,0830.1,4.99,000.00,030.2,028.7,000.0,038.8,031.8,26.3,0000.0,0003.03,0006.20,0002.20
2023-06-13 01:31:00,SystemResetWarning,0830.1,4.99,000.00,030.2,028.7,000.0,038.8,031.8,26.3,0000.0,0003.05,0006.16,0002.20
2023-06-13 01:32:00,SystemResetWarning,0830.1,4.99,000.00,030.2,028.7,000.0,038.8,031.8,26.4,0000.0,0003.09,0006.22,0002.23
2023-06-13 01:33:00,SystemResetWarning,0830.1,5.01,000.00,030.2,028.7,000.0,038.8,031.8,26.4,0000.0,0003.08,0005.82,0002.24
2023-06-13 01:34:00,SystemResetWarning,0830.1,5.01,000.00,030.2,028.7,000.0,038.8,031.8,26.3,0000.0,0003.06,0005.43,0002.27
2023-06-13 01:35:00,SystemResetWarning,0830.2,5.01,000.00,030.2,028.7,000.0,038.8,031.8,26.5,0000.0,0003.11,0005.44,0002.30
2023-06-13 01:36:00,SystemResetWarning,0830.2,4.98,000.00,030.2,028.7,000.0,038.8,031.8,26.5,0000.0,0003.16,0005.54,0002.33
2023-06-13 01:37:00,SystemResetWarning,0830.3,4.99,000.00,030.2,028.7,000.0,038.8,031.8,26.4,0000.0,0003.17,0005.48,0002.36
2023-06-13 01:38:00,SystemResetWarning,0830.2,5.00,000.00,030.2,028.7,000.0,038.8,031.8,26.3,0000.0,0003.21,0005.51,0002.39
2023-06-13 01:39:00,SystemResetWarning,0830.3,5.00,000.00,030.3,028.7,000.0,038.8,031.8,26.4,0000.0,0003.23,0005.55,0002.41
2023-06-13 01:40:00,SystemResetWarning,0830.2,5.01,000.00,030.3,028.7,000.0,038.8,031.8,26.7,0000.0,0003.24,0005.82,0002.44
2023-06-13 01:41:00,SystemResetWarning,0830.2,5.01,000.00,030.3,028.7,000.0,038.8,031.8,26.6,0000.0,0003.25,0007.57,0002.47
2023-06-13 01:42:00,SystemResetWarning,0830.2,4.99,000.00,030.3,028.7,000.0,038.8,031.8,26.5,0000.0,0003.27,0008.43,0002.51
2023-06-13 01:43:00,SystemResetWarning,0830.3,4.99,000.00,030.3,028.7,000.0,038.8,031.8,26.5,0000.0,0003.30,0008.50,0002.55
2023-06-13 01:44:00,SystemResetWarning,0830.3,5.00,000.00,030.3,028.7,000.0,038.8,031.8,26.5,0000.0,0003.32,0008.71,0002.58
2023-06-13 01:45:00,SystemResetWarning,0830.2,5.01,000.00,030.3,028.7,000.0,038.8,031.8,26.6,0000.0,0003.29,0008.66,0002.58
2023-06-13 01:46:00,SystemResetWarning,0830.3,5.00,000.00,030.3,028.7,000.0,038.8,031.7,26.7,0000.0,0003.27,0008.61,0002.58
2023-06-13 01:47:00,SystemResetWarning,0830.3,5.00,000.00,030.3,028.7,000.0,038.8,031.7,26.3,0000.0,0003.24,0008.60,0002.59
2023-06-13 01:48:00,SystemResetWarning,0830.3,5.02,000.00,030.3,028.7,000.0,038.9,031.8,26.3,0000.0,0003.26,0008.71,0002.58
2023-06-13 01:49:00,SystemResetWarning,0830.3,4.99,000.00,030.3,028.7,000.0,038.9,031.8,26.2,0000.0,0003.26,0008.75,0002.58
2023-06-13 01:50:00,SystemResetWarning,0830.2,4.99,000.00,030.3,028.7,000.0,038.9,031.8,26.2,0000.0,0003.26,0008.79,0002.58
2023-06-13 01:51:00,SystemResetWarning,0830.2,5.01,000.00,030.3,028.7,000.0,038.9,031.8,26.4,0000.0,0003.27,0008.82,0002.57
2023-06-13 01:52:00,SystemResetWarning,0830.3,5.01,000.00,030.3,028.7,000.0,038.9,031.8,26.7,0000.0,0003.29,0007.63,0002.57
2023-06-13 01:53:00,SystemResetWarning,0830.2,5.01,000.00,030.3,028.7,000.0,038.9,031.8,26.6,0000.0,0003.27,0006.33,0002.57
2023-06-13 01:54:00,SystemResetWarning,0830.2,4.99,000.00,030.3,028.7,000.0,038.9,031.8,26.5,0000.0,0003.24,0007.07,0002.55
2023-06-13 01:55:00,SystemResetWarning,0830.2,4.99,000.00,030.3,028.7,000.0,038.9,031.8,26.5,0000.0,0003.24,0008.22,0002.55
2023-06-13 01:56:00,SystemResetWarning,0830.2,5.00,000.00,030.3,028.7,000.0,038.9,031.8,26.5,0000.0,0003.28,0008.21,0002.57
2023-06-13 01:57:00,SystemResetWarning,0830.3,5.01,000.00,030.3,028.7,000.0,038.9,031.8,26.7,0000.0,0003.32,0008.29,0002.60
2023-06-13 01:58:00,SystemResetWarning,0830.3,5.00,000.00,030.4,028.8,000.0,038.9,031.8,26.8,0000.0,0003.32,0008.30,0002.60
2023-06-13 01:59:00,SystemResetWarning,0830.3,5.00,000.00,030.4,028.7,000.0,038.9,031.9,26.7,0000.0,0003.30,0008.23,0002.60
